KOREASAT 6A

Last updated on Tue Sep 22 2026 00:03:16 GMT+0000 (Coordinated Universal Time)

1 61910U 24206A 26264.51203744 -.00000366 00000+0 00000+0 0 9991 2 61910 0.0196 217.8162 0000811 303.6079 139.3526 1.00271893 6804
UTC large
Height (km)
Speed (km/s)
/
Latitude / Longitude
Inclination (degrees)
Orbital Period (minutes)
Azimuth
Elevation
Range (km)
Doppler Factor

Next 0 passes for location: London (51.5072 / 0.1276)

No passes found over London.
KOREASAT 6A